Location: Leiter
(44.7178°N, 106.2687°W)
Time: 00:48:07
(UTC+00:00)

RS-15 - Visible Passes

Search period start: 28 June 2022 00:00
Search period end: 08 July 2022 00:00
Orbit: 1881 x 2163 km, 64.8° (Epoch: 27 June)

Date Brightness Start Highest point End Pass type
(mag) Time Alt. Az. Time Alt. Az. Time Alt. Az.
28 Jun 9.7 03:28:53 10° NW 03:39:17 30° N 03:49:39 10° ENE visible
28 Jun 8.8 05:43:38 10° NW 05:55:40 51° NE 06:07:19 10° ESE visible
28 Jun 8.2 07:56:38 10° NW 08:08:41 63° WSW 08:16:53 23° S visible
28 Jun 9.3 10:13:02 10° WNW 10:18:21 14° W 10:23:38 10° WSW visible
29 Jun 9.0 05:07:22 10° NW 05:19:04 44° NNE 05:30:27 10° ESE visible
29 Jun 8.1 07:20:26 10° NW 07:32:46 77° WSW 07:41:12 24° SSE visible
29 Jun 9.1 09:35:09 10° NW 09:43:05 21° W 09:48:52 14° SW visible
30 Jun 9.2 04:31:01 10° NW 04:42:21 38° NNE 04:53:26 10° E visible
30 Jun 8.1 06:44:16 10° NW 06:56:44 88° NE 07:05:38 22° SE visible
30 Jun 8.9 08:58:07 10° NW 09:07:41 28° W 09:13:19 20° SW visible
01 Jul 9.4 03:54:32 10° NW 04:05:31 34° NNE 04:16:18 10° E visible
01 Jul 8.3 06:08:07 10° NW 06:20:35 74° NE 06:30:10 19° SE visible
01 Jul 8.7 08:21:29 10° NW 08:32:10 37° WSW 08:37:52 25° SSW visible
02 Jul 9.5 03:17:54 10° NW 03:28:34 31° NNE 03:39:06 10° ENE visible
02 Jul 8.5 05:31:58 10° NW 05:44:16 62° NE 05:54:47 15° ESE visible
02 Jul 8.4 07:45:03 10° NW 07:56:30 48° WSW 08:02:29 29° SSW visible
03 Jul 8.7 04:55:46 10° NW 05:07:50 52° NE 05:19:28 10° ESE visible
03 Jul 8.2 07:08:46 10° NW 07:20:45 61° WSW 07:27:11 31° S visible
03 Jul 9.4 09:25:35 10° WNW 09:30:20 13° W 09:34:53 10° WSW visible
04 Jul 8.9 04:19:31 10° NW 04:31:16 45° NE 04:42:41 10° ESE visible
04 Jul 8.1 06:32:34 10° NW 06:44:52 75° WSW 06:51:56 30° SSE visible
04 Jul 9.2 08:47:27 10° WNW 08:55:05 20° W 08:59:38 16° WSW visible
05 Jul 9.1 03:43:10 10° NW 03:54:33 39° NNE 04:05:41 10° E visible
05 Jul 8.1 05:56:24 10° NW 06:08:51 90° NE 06:16:44 27° SSE visible
05 Jul 9.0 08:10:21 10° NW 08:19:42 27° W 08:24:27 21° SW visible
06 Jul 9.3 03:06:42 10° NW 03:17:44 35° NNE 03:28:34 10° E visible
06 Jul 8.2 05:20:15 10° NW 05:32:43 76° NE 05:41:35 22° SE visible
06 Jul 8.8 07:33:40 10° NW 07:44:11 36° WSW 07:49:19 26° SW visible
07 Jul 8.4 04:44:05 10° NW 04:56:26 64° NE 05:06:30 16° SE visible
07 Jul 8.5 06:57:13 10° NW 07:08:34 46° WSW 07:14:13 30° SSW visible
